Zurück zum Katalog

STARLINK-31222

AktivKommunikationVLEO
NORAD 58828·PAYLOAD·🇺🇸 United States

Gestartet Jan 24, 2024 von Vandenberg Space Force Base

Loading…

Nächste Überflüge (nächste 24 Stunden)

TLE

AktuellSource: CelesTrak SupGP

Epoche: Sep 14, 2026, 14:47 UTC

1 58828C 24017C   26257.61645833 -.00054443  00000+0 -16085-2 0  2573
2 58828  53.1600  44.8956 0001219  92.7432  74.6018 15.34418546    12

Verfolge STARLINK-31222 in Echtzeit mit AllMySat

Download on the App Store